Shungnak AP, Shungnak, AK, AK

8:37 PM AKST on November 14, 2019 (GMT -0900)
Shungnak AP, Shungnak, AK

Weather History for PAGH - September, 2019

Change the Weather History Date:

Saturday, September 7, 2019

  Actual Average (PAFM) Record (PAFM)
Temperature  
Mean Temperature 56 °F -  
Max Temperature 62 °F 49 °F 66 °F (1996)
Min Temperature 51 °F 36 °F 24 °F (1990)
Degree Days  
Heating Degree Days 8    
Growing Degree Days 6 (Base 50)    
Moisture  
Dew Point 47 °F    
Average Humidity 76    
Maximum Humidity 93    
Minimum Humidity 52    
Precipitation  
Precipitation 0.00 in - - ()
Sea Level Pressure  
Sea Level Pressure 29.85 in    
Wind  
Wind Speed 10 mph (ESE)    
Max Wind Speed 17 mph    
Max Gust Speed 23 mph    
Visibility 10 miles    
Events Rain    
Averages and records for this station are not official NWS values.
T = Trace of Precipitation, MM = Missing Value Source: NWS Daily Summary

Daily Weather History Graph

Daily Weather History Graph

Search for Another Location

Airport or City:

Astronomy

Sep. 07, 2019 Rise Set
Actual Time 7:20 AM AKDT 9:30 PM AKDT
Civil Twilight 6:22 AM AKDT 10:27 PM AKDT
Nautical Twilight 5:01 AM AKDT 11:47 PM AKDT
Astronomical Twilight 2:59 AM AKDT 1:54 AM AKDT
Moon 9:15 PM AKDT (9/7) 10:52 PM AKDT (9/7)
Length of Visible Light 16h 05m
Length of Day
14h 09m
Waxing Gibbous, 67% of the Moon is Illuminated
Sep 7
Waxing Gibbous
Sep 13
Full
Sep 21
Last Quarter
Sep 28
New
Oct 5
First Quarter

Hourly Weather History & Observations

Time (AKDT) Temp. Dew Point Humidity Pressure Visibility Wind Dir Wind Speed Gust Speed Precip Events Conditions
12:56 AM 52.0 °F 50.0 °F 93% 29.95 in 10.0 mi East 6.9 mph - N/A Rain Light Rain
1:56 AM 52.0 °F 50.0 °F 93% 29.94 in 10.0 mi East 10.4 mph - N/A Rain Light Rain
2:56 AM 52.0 °F 48.9 °F 89% 29.93 in 10.0 mi East 9.2 mph - N/A   Overcast
3:56 AM 52.0 °F 48.9 °F 89% 29.91 in 10.0 mi East 9.2 mph - N/A Rain Light Rain
4:56 AM 52.0 °F 48.0 °F 86% 29.90 in 10.0 mi East 10.4 mph - N/A Rain Light Rain
5:56 AM 52.0 °F 48.0 °F 86% 29.89 in 10.0 mi East 10.4 mph - N/A   Mostly Cloudy
6:56 AM 52.0 °F 46.9 °F 83% 29.88 in 10.0 mi East 12.7 mph - N/A   Overcast
7:56 AM 51.1 °F 46.9 °F 86% 29.87 in 10.0 mi East 10.4 mph - N/A Rain Light Rain
8:56 AM 52.0 °F 46.0 °F 80% 29.86 in 10.0 mi East 12.7 mph - N/A   Overcast
9:56 AM 53.1 °F 45.0 °F 74% 29.85 in 10.0 mi East 12.7 mph - N/A   Overcast
10:56 AM 53.1 °F 46.0 °F 77% 29.85 in 10.0 mi East 5.8 mph - N/A   Overcast
11:56 AM 54.0 °F 46.0 °F 75% 29.85 in 10.0 mi East 9.2 mph - N/A   Overcast
12:56 PM 55.9 °F 46.0 °F 69% 29.83 in 10.0 mi ESE 12.7 mph - N/A   Clear
1:56 PM 59.0 °F 45.0 °F 60% 29.81 in 10.0 mi ESE 13.8 mph 20.7 mph N/A   Clear
2:56 PM 61.0 °F 44.1 °F 54% 29.80 in 10.0 mi East 17.3 mph 23.0 mph N/A   Partly Cloudy
3:56 PM 62.1 °F 45.0 °F 53% 29.79 in 10.0 mi East 16.1 mph - N/A   Scattered Clouds
4:56 PM 62.1 °F 44.1 °F 52% 29.79 in 10.0 mi SE 9.2 mph - N/A   Overcast
5:56 PM 62.1 °F 44.1 °F 52% 29.79 in 10.0 mi SSE 6.9 mph - N/A   Overcast
6:56 PM 60.1 °F 44.1 °F 55% 29.79 in 10.0 mi SSE 6.9 mph - N/A Rain Light Rain
7:56 PM 57.0 °F 46.9 °F 69% 29.80 in 10.0 mi ESE 4.6 mph - N/A Rain Light Rain
8:56 PM 55.0 °F 48.9 °F 80% 29.80 in 10.0 mi SE 5.8 mph - N/A Rain Light Rain
9:56 PM 54.0 °F 48.9 °F 83% 29.81 in 10.0 mi ESE 6.9 mph - N/A Rain Light Rain
10:56 PM 53.1 °F 48.0 °F 83% 29.82 in 10.0 mi East 6.9 mph - N/A Rain Light Rain
11:56 PM 51.1 °F 48.9 °F 92% 29.82 in 10.0 mi East 10.4 mph - N/A Rain Light Rain